Theta_e
330 331 331 331 331 331 332 332 334 335 334 334 334 333 334 335 336 336 336 337 337 337 338 339 340 340 340 340 340 339 340 339 339 339 339 340 341 342 343 343 343 343
330 330 330 330 330 330 331 332 332 333 333 333 333 332 333 334 334 335 335 335 335 334 335 335 336 337 337 338 338 339 339 339 339 339 339 340 340 341 342 342 343 343
330 329 329 330 330 329 330 331 331 331 332 331 332 332 333 333 333 334 334 334 334 333 333 333 333 334 334 335 336 337 338 338 339 339 339 340 340 340 341 340 341 342
329 329 329 330 330 329 330 329 329 330 331 331 331 332 332 333 334 334 334 333 332 331 331 331 331 331 331 332 333 334 336 336 337 338 338 339 339 339 339 340 339 340
328 328 330 330 330 330 329 328 327 329 331 332 332 332 333 333 334 333 332 330 330 330 329 328 328 328 329 329 331 332 334 335 335 336 337 337 339 339 339 339 340 339
328 328 329 329 329 329 329 328 327 329 331 331 333 333 333 333 333 333 331 330 330 330 328 328 328 328 329 330 331 332 332 333 334 335 336 337 337 339 339 340 340 339
327 328 329 329 329 329 329 329 328 329 330 330 332 333 333 333 333 332 331 331 331 331 331 330 330 330 330 331 331 332 332 332 333 335 335 336 337 338 339 339 340 340
326 328 328 328 328 328 328 328 328 329 330 329 330 332 333 333 333 333 333 333 333 334 333 333 332 332 331 332 331 331 332 332 333 334 335 336 336 337 338 339 339 339
327 327 328 328 328 328 328 328 328 329 329 329 329 330 331 331 331 332 332 333 334 334 334 334 334 333 332 332 332 332 332 332 332 333 334 335 336 337 338 338 339 338
327 327 327 328 328 328 329 328 328 328 328 328 328 328 329 328 328 329 329 330 332 333 334 334 333 332 332 332 332 332 332 332 333 334 335 335 336 336 337 338 338 338
326 328 328 328 328 328 329 329 329 329 328 328 328 328 328 327 327 327 327 328 329 332 333 332 331 331 331 331 330 330 330 331 333 334 334 335 335 336 336 337 337 337
326 327 327 327 327 328 328 329 330 330 329 328 327 327 328 328 327 327 327 327 327 329 330 330 330 330 329 329 329 329 329 330 331 332 332 333 334 334 335 336 337 337
325 326 326 326 327 327 327 328 330 331 331 330 329 328 328 328 328 328 328 327 326 327 328 328 330 330 329 329 329 329 329 329 329 330 331 331 332 333 335 336 337 337
325 324 325 326 326 326 327 328 330 331 332 331 330 329 328 328 328 328 328 327 326 326 327 328 330 331 329 329 328 327 326 326 327 328 329 330 331 332 333 335 336 337
326 325 324 326 326 326 326 327 328 330 331 331 331 330 329 328 328 327 327 328 327 327 327 327 329 330 329 329 328 325 324 324 324 325 327 328 330 331 331 333 334 336
327 326 325 326 326 325 325 326 327 328 330 332 332 330 329 328 328 328 327 327 328 328 327 328 330 329 328 329 328 325 324 324 324 325 326 327 328 330 331 331 332 334
326 326 325 325 325 325 325 326 327 328 330 330 330 328 327 327 327 327 328 327 328 328 328 329 330 328 327 328 327 324 324 325 325 325 327 327 329 329 330 331 332 333
325 326 325 325 325 325 326 327 328 329 329 329 328 326 324 325 326 327 328 327 328 329 328 329 329 327 326 327 325 324 325 326 326 326 327 329 330 330 331 331 332 333
326 326 325 325 325 324 325 327 329 328 328 326 325 324 324 325 326 327 328 328 328 329 328 327 327 326 326 327 325 324 325 325 325 325 326 327 328 330 332 333 333 334
326 327 326 324 323 322 324 328 328 328 326 325 325 325 324 326 327 328 328 327 327 328 328 327 327 325 325 327 326 325 325 324 323 323 324 324 324 325 328 331 332 334
327 327 326 323 322 322 324 326 327 327 327 326 326 325 325 326 326 327 328 328 327 328 328 327 327 325 324 327 327 326 325 323 321 321 322 322 321 322 323 325 327 329
327 326 324 324 323 322 324 325 325 326 326 325 325 325 326 326 325 325 327 327 327 329 328 328 327 325 324 327 328 327 326 323 321 321 321 320 320 320 320 321 323 325
327 325 324 324 323 322 324 325 324 324 324 323 324 325 326 325 324 323 324 323 325 327 328 328 328 326 327 328 328 327 326 323 320 320 320 320 320 320 319 320 320 322
328 327 326 325 322 321 323 323 323 323 322 322 324 326 327 326 325 324 322 322 322 323 327 329 328 326 327 329 327 327 327 325 322 321 321 320 320 319 319 319 319 320
329 328 326 323 321 321 321 322 322 322 321 321 322 325 325 325 325 324 322 322 321 321 324 328 327 326 327 328 327 327 329 327 324 322 321 320 321 320 320 319 319 318
329 328 326 322 321 321 320 321 322 321 320 321 321 322 322 322 324 325 323 322 322 322 322 325 326 326 327 328 328 329 330 328 326 324 322 322 321 321 321 321 320 318
Wind_Speed
12 13 14 15 15 16 16 15 14 13 14 13 14 15 15 14 14 13 14 14 14 15 15 15 15 16 17 19 20 21 23 25 25 26 26 27 27 28 29 29 30 31
10 11 13 14 15 16 16 15 14 14 14 14 14 14 14 14 14 14 14 15 16 17 16 16 16 17 18 19 20 21 23 25 26 26 26 27 29 29 29 29 30 31
10 11 12 12 13 15 15 14 14 14 14 14 14 13 13 12 13 13 14 14 16 17 18 18 18 19 19 19 20 21 22 24 26 27 26 27 29 30 31 31 31 32
10 11 11 11 12 13 14 14 13 13 12 13 12 12 12 11 11 11 11 11 13 14 16 17 18 19 20 21 21 20 22 24 26 27 27 29 30 31 32 31 31 32
11 11 11 11 11 12 12 13 12 12 12 12 12 12 11 11 10 9 9 9 12 14 16 17 19 20 22 23 23 22 22 24 26 27 28 30 30 31 32 31 29 31
11 11 12 12 12 12 13 12 12 12 13 13 13 13 12 11 9 8 9 11 13 15 17 19 21 23 24 25 25 25 25 26 27 27 28 30 31 31 32 31 30 30
12 12 12 12 13 13 13 13 12 12 13 14 14 13 13 12 11 10 11 13 14 16 18 20 23 25 26 27 27 27 27 27 27 28 29 30 31 32 32 32 32 32
12 11 11 12 14 15 14 12 12 12 13 14 14 14 14 13 13 13 14 15 17 18 19 21 23 25 26 26 27 27 27 27 27 27 29 31 32 33 33 33 33 34
11 10 10 12 13 14 14 12 11 12 12 13 14 14 14 14 14 15 16 16 17 19 20 21 22 24 25 27 27 27 28 28 28 28 29 31 32 33 34 34 34 35
10 10 10 11 12 13 13 13 12 12 12 13 13 14 14 14 14 14 15 16 18 19 20 20 22 24 26 27 26 26 27 27 27 28 29 30 32 33 34 34 34 35
10 10 10 11 12 13 13 13 14 13 12 12 13 14 14 13 14 14 15 17 19 19 19 20 22 23 24 24 23 23 24 24 25 26 27 28 30 31 32 32 33 34
11 10 10 11 12 13 14 14 15 15 14 13 13 14 13 13 14 15 16 18 19 19 19 20 21 21 21 21 21 23 25 25 25 24 25 26 27 28 30 31 32 33
11 11 10 11 12 13 14 15 15 16 16 15 15 14 13 13 14 15 15 16 18 19 19 20 20 19 19 20 21 24 26 27 28 27 26 26 25 26 28 29 30 31
11 11 11 12 13 13 14 15 16 16 17 17 17 16 15 14 14 15 16 16 17 18 19 20 20 18 18 19 21 25 27 28 30 29 27 27 26 26 26 28 30 31
11 12 12 13 13 13 13 15 16 16 16 17 18 18 16 15 14 16 17 18 18 18 19 20 19 18 18 19 22 26 28 31 33 32 29 27 27 27 27 28 30 32
12 12 13 13 14 13 14 15 16 16 16 17 18 18 17 17 17 18 18 18 17 17 18 19 18 17 18 19 21 25 29 32 35 35 32 29 28 28 28 29 30 32
12 12 13 14 13 14 15 16 17 15 15 16 17 18 18 18 19 19 17 16 16 16 17 18 18 18 18 20 22 25 29 33 34 33 32 31 29 28 28 28 30 32
11 12 13 13 14 15 16 16 15 14 14 16 16 17 18 18 19 19 17 16 15 15 15 16 18 18 17 20 23 25 29 31 30 29 29 30 29 29 28 27 27 29
12 13 13 14 14 15 15 15 13 12 13 15 16 16 18 19 20 19 18 15 14 14 15 16 17 17 17 19 22 26 28 29 28 27 26 26 27 24 24 25 25 27
13 13 13 13 14 16 16 14 13 12 13 15 16 16 18 19 19 19 17 15 14 14 15 17 17 17 16 18 22 25 27 26 26 26 24 24 27 24 15 12 16 21
15 14 13 13 15 16 16 14 13 13 14 15 16 16 17 17 17 17 17 16 15 15 16 18 18 17 16 18 21 24 25 25 25 25 24 24 27 26 23 20 17 15
15 14 13 14 15 16 15 13 13 14 14 14 16 15 14 14 14 16 17 17 17 16 16 18 20 17 16 18 20 21 23 24 24 23 23 26 28 26 26 28 26 22
14 13 14 14 14 15 14 13 13 14 13 14 15 15 13 12 13 14 15 17 18 17 16 18 20 18 17 17 18 19 20 21 23 23 24 26 28 27 25 26 28 29
13 14 14 14 13 13 13 13 13 13 12 13 15 14 12 12 13 14 15 16 18 18 16 16 18 17 16 16 16 16 17 19 21 22 24 25 26 24 23 23 27 30
12 13 13 12 11 12 12 13 12 11 11 13 14 14 13 14 14 14 15 17 18 19 17 14 15 15 14 14 15 15 15 17 19 20 21 22 23 22 21 22 27 30
12 12 12 11 11 12 12 12 10 10 11 13 13 14 14 15 14 14 16 17 18 20 19 14 12 12 12 12 14 15 15 15 16 16 17 19 20 21 21 22 26 29
Wind_Direction
326 329 329 328 326 327 328 326 323 319 319 320 319 320 319 316 314 311 310 309 307 308 309 308 304 295 287 282 280 276 271 268 267 265 261 256 252 247 245 243 241 240
327 327 326 325 326 328 328 324 321 317 315 314 313 314 313 313 313 312 311 311 309 307 307 307 304 300 296 292 289 285 281 277 272 269 264 260 257 253 250 247 243 241
327 326 324 324 326 327 327 326 324 321 316 313 312 311 311 310 310 310 311 312 311 309 308 308 306 303 301 298 293 288 284 280 277 273 268 263 259 256 254 251 248 244
327 327 325 322 322 322 323 324 326 329 328 327 323 318 315 313 310 309 312 316 318 318 317 315 313 310 308 305 301 294 286 280 277 275 271 266 261 257 255 252 248 246
328 329 326 322 319 317 318 319 324 331 335 337 336 331 322 315 313 314 318 325 326 325 325 325 322 319 316 312 306 298 290 283 278 274 271 267 262 258 255 250 245 245
327 326 328 328 326 322 316 312 316 326 333 338 340 339 332 321 316 316 319 322 325 325 326 326 325 323 319 314 306 299 292 286 281 276 272 268 264 258 253 249 245 243
324 321 325 330 330 327 319 309 308 317 328 335 337 338 335 326 318 314 313 314 316 318 320 321 321 322 319 314 307 301 294 287 283 279 274 269 265 260 253 248 244 241
320 316 320 328 330 332 328 318 310 313 322 330 334 335 332 326 319 313 311 310 310 311 313 315 318 318 316 313 308 302 295 288 284 280 277 271 265 260 254 248 243 241
318 314 315 325 333 338 339 334 324 319 320 322 326 328 326 323 320 316 314 313 313 313 312 313 315 316 314 311 308 303 296 290 285 282 279 273 265 260 255 250 244 240
317 311 307 318 330 336 341 341 335 328 322 317 316 315 315 317 317 318 322 324 322 320 316 315 317 319 318 315 311 307 301 295 289 284 281 276 268 261 258 253 246 241
314 308 303 310 320 326 331 333 335 333 327 321 316 311 311 314 316 320 326 328 327 324 320 320 322 323 325 324 322 321 317 309 299 291 286 281 272 263 258 255 250 245
311 307 304 308 313 318 322 325 329 331 329 325 321 318 317 316 316 320 325 326 327 327 325 324 323 324 327 328 327 329 328 323 316 308 300 292 282 270 261 256 252 248
309 306 304 307 311 315 317 320 324 326 326 323 319 318 321 322 321 319 320 323 324 324 323 322 321 321 324 326 325 327 330 328 325 318 309 301 292 279 267 259 253 250
306 303 303 305 308 313 318 321 324 324 324 322 318 315 315 321 323 316 313 316 317 316 317 319 319 320 322 324 325 327 329 328 325 317 306 299 293 284 273 262 255 253
300 299 301 303 306 312 320 325 327 326 325 322 318 313 309 309 310 309 310 313 311 310 314 318 319 320 324 326 327 330 331 328 324 316 306 296 288 282 275 266 257 253
298 299 301 302 306 312 320 325 327 327 326 323 319 314 310 307 303 302 306 309 307 307 313 316 316 319 326 328 329 332 333 330 324 317 309 299 287 279 273 267 260 254
302 305 305 306 309 315 321 325 325 325 325 322 319 317 316 314 310 305 302 300 301 306 314 316 315 319 327 330 332 336 337 333 327 320 314 307 294 280 272 267 261 256
307 307 307 311 315 321 324 323 321 321 324 322 320 320 321 320 319 315 306 297 297 305 311 315 318 322 328 334 338 343 343 339 334 329 324 319 308 290 275 268 263 258
307 304 306 313 320 327 326 320 317 319 323 326 325 324 325 324 324 322 313 300 297 302 305 312 321 328 333 336 342 348 349 348 345 340 335 337 334 313 281 264 259 255
307 304 306 313 324 331 326 317 316 319 324 331 331 329 330 329 327 326 319 304 294 296 302 311 323 335 336 334 342 351 353 355 356 351 347 355 360 354 335 300 279 267
305 306 308 316 326 329 323 317 317 320 326 333 333 331 331 330 330 331 324 311 297 293 300 311 322 335 338 333 341 351 355 1 5 359 358 10 12 9 14 17 359 325
301 305 309 318 324 323 319 317 320 324 330 334 332 329 329 330 332 333 329 320 307 296 298 308 320 332 336 333 340 350 354 4 10 3 4 19 20 12 16 25 21 7
296 303 308 315 322 322 318 318 322 328 334 336 332 327 325 327 331 333 333 330 321 309 301 304 316 330 333 329 339 350 354 5 13 9 10 21 23 17 17 23 25 23
292 299 306 313 320 322 320 320 325 331 337 340 338 334 328 328 330 330 331 333 331 325 314 303 311 329 335 331 338 349 354 2 12 15 14 18 22 19 18 22 26 28
290 295 302 308 311 316 320 321 323 331 340 345 346 344 338 333 331 326 325 330 333 333 328 312 310 328 339 337 342 349 351 356 7 16 16 14 14 14 15 22 28 29
286 290 295 298 298 307 317 318 319 333 346 349 349 347 341 334 330 325 323 326 329 332 335 325 309 321 336 340 345 350 350 349 357 9 14 12 9 7 12 21 27 28